CZ-6A DEB, 60765

Orbit data source: Space-Track

CZ-6A DEB, 60765 is space debris in LEO originally from a launch on Tue, 06 Aug 2024 UTC launched from the Taiyaun Space Center, China (TSC). Debris objects in space refer to the collection of defunct objects orbiting the Earth. Examples of debris include non-operational satellites, rocket bodies, and fragments generated from explosions, collisions, or faulty payload assembly.

Loading next visibility...
Identifier
60765, 2024-140EQ
Orbit
LEO
Country
Flag of CNCN / PRC
Related business
Manufacturer
SAST
Mission
Spacecraft
Bus & Motor
Unknown
Mass
Unknown
Launch date (UTC)
2024-08-06 (1 year ago)
Launch vehicle
Unknown
Launch site
Taiyaun Space Center, China (TSC)
Object type
Payload
Rocket body
Debris
Shape & HBR
Unknown shape, 0.2 m
Radar Cross Section
Small (<0.1 m²)

Expand to show TLE details & history
Last TLE update: 1 day ago

TLE from 1 day ago
0 CZ-6A DEB
1 60765U 24140EQ  25312.21470731  .00004415  00000-0  10365-2 0  9994
2 60765  88.7628 283.9058 0101985 247.0361 112.0061 14.51155113 65602
Epoch: 2025-11-08T05:09Z
TLE epoch observation values (Epoch: 2025-11-08T05:09:10.711Z)
Latitude
-0.00004°
Longitude
158.96364°
Altitude
752.744 km
Speed
7.463 km/s
True Right ascension
18h 55m 37s
True Declination
0° 00' 00"
Sunlit
Object was in daylight at epoch
Visualization orbit readout
Latitude
Unknown
Longitude
Unknown
Altitude
Unknown
Speed
Unknown
Apparent Right ascension
Unknown
Apparent Declination
Unknown
Sunlit
N/A
Visualization observer readout
Local Sidereal Time
08:50:04
Azimuth
Unknown
Elevation
Unknown
Doppler factor
Unknown
Orbital elements
Apogee altitude
791.164 km
Perigee altitude
646.408 km
Semi-major axis
7,096.923 km
Eccentricity
0.0102
Inclination
88.7628°
RAAN
283.9058°
Arg. of periapsis
247.0361°
True anomaly
113.0844°
Mean anomaly
112.0061°
Eccentric anomaly
112.54577°
Mean motion
3.63026 °/min
Orbital period
99.17 mins
BSTAR
0.0010365
Loading maneuver chart data...
Computing Atmospheric mass density...
Loading historical data...
Loading historical data...
Loading historical data...
Loading historical data...
Loading historical data...
Loading historical data...
Loading historical data...

Documentation

Showing up to 5 results
|